Wind_Speed
13 14 14 15 15 16 16 17 18 18 18 19 19 20 20 19 19 19 19 19 19 20 20 21 21 21 22 23 23 23 23 23 23 23 23 23 23 23
14 15 15 15 16 16 17 18 19 19 20 21 21 22 22 21 21 21 20 20 20 20 20 21 21 22 23 24 24 24 24 24 24 25 25 25 25 24
14 15 16 17 17 18 19 19 20 20 21 22 22 23 23 23 23 22 22 22 22 22 22 22 23 23 23 24 24 24 25 25 25 25 25 26 26 25
16 16 17 17 18 18 19 20 20 21 21 22 23 23 23 24 23 23 23 23 23 24 23 24 24 24 25 25 25 25 26 26 27 27 26 25 26 26
18 18 18 19 19 19 19 20 20 21 22 22 23 24 24 24 24 24 24 24 25 25 25 26 26 25 25 25 26 26 26 26 27 26 25 26 26 26
20 20 20 21 21 21 21 22 22 23 23 23 24 24 24 25 25 25 25 26 26 27 27 26 27 27 27 27 27 27 27 27 27 27 27 27 27 28
21 22 22 22 23 23 23 24 25 25 25 25 25 25 26 27 28 28 28 28 28 29 28 28 28 28 29 29 29 28 28 28 28 28 28 29 29 29
23 24 24 24 25 25 25 25 26 27 27 27 27 27 27 29 30 30 30 30 30 30 31 30 30 30 30 31 31 30 30 30 30 30 30 30 30 30
25 25 26 25 26 26 26 27 27 27 28 28 29 29 30 30 31 32 32 32 32 32 32 32 32 32 32 32 32 32 32 31 31 31 31 31 31 31
26 26 27 27 27 28 28 28 29 29 29 29 30 30 30 31 32 32 33 34 34 34 34 34 34 34 34 34 34 34 33 33 33 33 33 32 32 32
27 27 27 28 28 28 29 28 28 29 30 30 30 31 32 33 33 34 34 34 34 34 35 35 35 35 35 35 35 35 35 34 34 33 33 34 34 34
27 27 28 29 29 29 29 29 29 30 31 32 32 33 33 34 34 35 35 35 35 36 36 36 36 37 36 35 35 35 36 35 34 34 34 35 35 35
28 28 28 29 29 30 30 30 31 32 33 33 34 34 34 35 36 36 36 36 36 36 37 37 37 38 38 37 36 36 35 34 34 35 36 36 37 36
27 28 29 29 30 30 31 32 32 33 34 35 35 36 36 36 36 36 37 37 37 37 37 37 37 37 37 37 37 37 36 35 35 35 36 36 36 36
28 28 29 30 31 32 33 33 34 34 34 35 36 36 37 37 37 37 37 37 37 37 37 37 37 37 36 36 36 35 35 36 36 36 37 37 37 37
29 29 30 30 31 32 33 34 34 35 35 35 35 36 36 37 37 38 38 37 37 37 37 36 36 35 35 35 35 34 35 36 36 37 37 36 36 36
29 30 31 31 31 32 33 34 34 34 34 34 34 35 36 36 37 38 38 37 37 36 36 37 36 36 36 35 35 34 35 35 36 36 37 37 37 37
30 31 31 31 31 32 33 33 34 35 34 34 35 36 36 36 36 36 37 36 36 36 36 36 35 35 35 35 36 36 36 36 36 36 36 37 37 37
30 30 31 31 32 32 32 33 33 34 34 34 35 36 37 36 36 36 36 35 35 35 35 35 35 35 34 34 35 35 35 35 35 36 36 36 36 37
30 31 31 31 31 31 32 33 33 33 34 35 35 35 35 36 36 35 35 35 34 34 34 34 34 35 35 36 35 35 35 36 36 35 35 35 36 36
30 31 31 30 30 31 32 33 33 34 34 34 34 34 35 35 35 35 35 35 35 34 34 34 35 35 36 37 36 34 35 36 36 35 34 34 34 36
30 30 30 31 31 32 32 33 33 33 33 34 33 34 34 35 35 35 35 35 34 34 34 34 34 35 35 35 34 34 34 34 34 34 34 34 34 34
31 31 31 32 32 32 32 32 32 32 32 33 33 33 33 33 33 34 35 35 35 35 34 34 34 34 35 34 33 34 34 33 33 34 33 33 33 33
Wind_Direction
272 270 271 271 270 272 272 271 270 270 271 272 274 275 276 278 277 277 278 280 281 279 278 278 278 278 277 276 274 274 273 272 271 272 273 274 273 273
275 274 276 277 278 277 276 274 272 272 272 273 275 275 275 276 276 277 281 282 280 280 280 281 281 279 278 276 274 274 273 273 273 272 272 273 273 273
278 276 277 278 277 276 275 275 274 274 274 274 275 275 275 277 277 277 280 281 280 280 281 281 281 281 280 278 276 275 274 274 274 272 272 272 271 271
281 281 279 279 279 278 277 277 275 274 275 275 276 276 277 278 279 280 281 281 281 281 281 281 281 279 278 278 278 277 276 275 274 273 272 271 272 271
282 281 280 280 281 282 282 281 280 277 277 276 276 275 275 277 278 280 281 280 282 282 281 281 281 279 277 277 278 278 278 277 275 274 273 272 271 271
279 280 280 280 281 281 282 282 282 281 282 280 278 276 275 276 277 278 279 280 280 280 279 280 280 280 279 278 277 277 276 275 275 272 272 272 272 272
279 280 279 279 280 280 280 280 280 281 283 283 281 278 275 276 277 278 278 279 280 280 280 280 279 279 278 277 277 277 276 275 273 271 272 273 273 273
279 281 280 281 281 281 280 280 281 281 281 281 281 279 278 277 279 279 280 280 280 281 280 280 279 278 278 277 276 276 275 274 272 272 272 273 273 273
280 282 282 282 282 282 281 280 281 281 281 280 280 279 278 278 278 279 280 281 281 280 280 279 278 278 278 277 275 274 273 273 273 271 271 271 271 272
282 282 282 282 282 282 283 284 283 282 282 282 281 281 281 280 280 281 281 281 280 280 280 279 278 277 277 277 276 275 273 272 272 271 271 270 270 271
283 282 281 281 282 283 283 284 284 284 283 282 282 282 283 282 282 283 282 283 282 281 280 279 278 277 276 276 276 275 275 274 273 273 272 272 270 270
282 282 282 282 281 281 282 282 283 285 285 283 283 283 284 284 284 284 284 283 283 282 283 281 280 279 277 276 275 274 274 274 272 272 271 271 270 270
281 282 283 283 282 281 281 282 283 284 285 285 285 284 284 285 284 284 284 284 283 283 283 283 281 280 279 277 275 274 274 273 272 271 271 270 270 270
282 281 282 283 284 283 283 284 285 285 285 285 286 286 286 286 286 285 284 284 284 284 282 281 281 280 278 278 276 274 272 271 272 272 271 270 268 267
284 284 285 285 286 286 285 285 285 285 285 285 285 285 286 287 287 287 286 285 284 284 284 284 281 280 279 279 277 275 273 271 270 270 270 268 267 266
286 285 285 286 286 287 287 287 287 286 285 285 286 286 287 287 288 289 289 287 287 286 286 286 284 282 281 280 279 277 275 274 272 269 269 269 268 267
287 287 288 288 287 287 286 286 287 287 287 286 287 288 287 288 288 288 289 289 288 288 287 287 287 285 284 281 281 279 277 276 275 273 270 268 267 267
289 290 290 289 289 289 289 288 289 289 289 288 289 290 290 290 291 291 290 289 289 288 287 287 286 285 284 284 283 282 280 278 278 276 272 270 268 267
291 293 293 292 291 290 290 291 291 290 290 290 290 291 292 292 293 294 293 291 290 289 288 287 285 285 283 282 283 282 280 278 278 278 276 272 270 268
292 293 293 293 292 290 292 293 292 292 292 292 291 292 293 294 294 295 295 293 292 291 290 288 287 285 284 283 282 280 280 280 279 278 277 274 271 268
293 293 293 292 292 292 293 295 294 294 294 293 292 292 292 294 295 295 295 294 294 293 292 290 289 287 285 284 283 281 280 280 279 277 276 274 271 268
294 294 293 293 293 293 293 294 295 295 295 295 294 294 294 295 295 296 296 296 296 295 294 293 292 290 289 289 286 283 282 281 279 277 276 274 272 269
295 294 293 294 294 294 294 295 295 295 295 295 294 295 296 296 295 295 296 297 296 296 295 294 294 293 292 289 286 285 285 283 281 280 279 278 275 271
Height
5861 5860 5860 5860 5859 5859 5859 5858 5859 5858 5858 5857 5856 5855 5854 5853 5852 5852 5851 5850 5849 5849 5848 5847 5846 5845 5844 5843 5842 5842 5841 5841 5841 5841 5840 5840 5840 5840
5857 5856 5856 5855 5855 5854 5854 5853 5853 5853 5852 5852 5851 5850 5849 5848 5847 5846 5845 5845 5844 5843 5842 5841 5840 5839 5838 5837 5836 5835 5835 5834 5834 5834 5834 5834 5833 5833
5853 5852 5851 5851 5850 5849 5849 5848 5848 5847 5847 5846 5845 5844 5844 5843 5842 5841 5840 5839 5838 5836 5836 5835 5834 5832 5831 5830 5829 5829 5828 5828 5827 5827 5827 5827 5826 5827
5849 5848 5847 5846 5845 5845 5844 5843 5842 5841 5841 5840 5839 5838 5837 5837 5836 5835 5834 5833 5832 5830 5829 5828 5827 5826 5825 5824 5823 5822 5821 5820 5820 5819 5819 5819 5819 5819
5844 5843 5842 5841 5840 5839 5838 5837 5836 5835 5834 5834 5833 5832 5831 5830 5829 5828 5827 5826 5825 5824 5822 5821 5820 5819 5818 5817 5815 5814 5813 5813 5812 5812 5812 5812 5812 5812
5838 5837 5836 5836 5835 5834 5833 5832 5830 5829 5827 5827 5826 5825 5824 5823 5822 5821 5820 5819 5818 5816 5815 5814 5812 5811 5810 5809 5808 5807 5806 5805 5805 5804 5804 5804 5804 5804
5832 5831 5830 5829 5828 5827 5826 5825 5824 5822 5821 5820 5819 5818 5817 5816 5815 5814 5812 5811 5810 5808 5807 5806 5805 5803 5802 5801 5800 5799 5798 5797 5797 5796 5796 5796 5796 5796
5825 5824 5823 5822 5821 5820 5819 5818 5817 5815 5814 5812 5811 5810 5809 5808 5807 5805 5804 5802 5802 5800 5798 5797 5796 5795 5793 5792 5791 5790 5790 5789 5788 5788 5788 5788 5788 5787
5818 5817 5816 5814 5813 5812 5811 5810 5808 5807 5806 5805 5803 5802 5801 5799 5798 5796 5794 5793 5792 5791 5789 5788 5786 5785 5784 5783 5782 5781 5780 5780 5779 5779 5779 5779 5779 5779
5810 5809 5808 5807 5805 5804 5803 5801 5800 5799 5797 5796 5794 5793 5791 5789 5788 5786 5784 5783 5782 5780 5779 5778 5777 5775 5774 5773 5772 5771 5770 5770 5769 5769 5769 5769 5769 5769
5802 5801 5800 5798 5797 5796 5794 5793 5792 5790 5788 5787 5785 5783 5781 5780 5778 5776 5775 5773 5772 5770 5768 5767 5766 5765 5764 5763 5761 5760 5760 5759 5759 5759 5759 5759 5759 5759
5794 5793 5791 5790 5789 5787 5786 5784 5783 5781 5779 5777 5775 5773 5772 5770 5768 5766 5764 5762 5761 5760 5758 5756 5755 5753 5753 5752 5751 5749 5748 5748 5748 5748 5748 5748 5748 5748
5785 5784 5783 5781 5779 5778 5776 5775 5773 5772 5770 5768 5766 5764 5762 5760 5757 5755 5753 5751 5750 5748 5746 5744 5743 5741 5740 5740 5740 5738 5737 5737 5736 5736 5737 5737 5737 5737
5777 5775 5774 5772 5770 5768 5767 5765 5763 5762 5760 5758 5756 5754 5751 5749 5747 5744 5742 5740 5738 5736 5734 5732 5730 5729 5728 5727 5727 5726 5725 5724 5724 5724 5725 5725 5725 5725
5768 5766 5765 5763 5761 5759 5757 5755 5753 5751 5750 5748 5746 5744 5741 5739 5736 5734 5731 5729 5727 5724 5722 5721 5719 5717 5716 5715 5714 5713 5713 5713 5712 5712 5712 5713 5713 5714
5759 5757 5755 5753 5751 5749 5747 5745 5743 5741 5739 5737 5735 5733 5731 5728 5726 5723 5721 5718 5716 5714 5711 5709 5707 5705 5704 5703 5702 5701 5701 5700 5700 5699 5700 5700 5701 5701
5750 5748 5746 5744 5742 5740 5738 5735 5733 5731 5729 5727 5725 5723 5720 5717 5715 5712 5710 5707 5705 5703 5701 5698 5696 5693 5692 5690 5689 5688 5688 5688 5687 5687 5687 5687 5688 5689
5741 5738 5736 5734 5732 5730 5728 5725 5723 5721 5719 5716 5714 5712 5709 5707 5704 5701 5698 5696 5694 5691 5689 5687 5685 5683 5681 5680 5678 5677 5676 5676 5675 5674 5674 5675 5676 5676
5732 5729 5727 5725 5723 5720 5718 5716 5713 5711 5708 5706 5704 5701 5698 5695 5693 5690 5688 5685 5682 5680 5677 5675 5673 5672 5670 5670 5668 5666 5664 5663 5663 5662 5662 5662 5663 5663
5723 5720 5718 5716 5713 5711 5708 5706 5703 5700 5698 5696 5693 5691 5688 5685 5682 5680 5677 5674 5672 5669 5667 5664 5662 5660 5659 5658 5657 5655 5653 5651 5650 5650 5649 5649 5649 5650
5714 5711 5709 5706 5704 5702 5699 5696 5693 5690 5688 5685 5683 5681 5678 5675 5672 5669 5667 5664 5661 5659 5656 5654 5651 5649 5647 5645 5644 5643 5641 5639 5638 5638 5637 5637 5637 5638
5705 5702 5700 5697 5695 5692 5689 5686 5684 5681 5678 5675 5673 5670 5668 5665 5662 5659 5657 5654 5651 5649 5646 5643 5640 5637 5635 5633 5631 5631 5630 5628 5626 5625 5625 5625 5624 5625
5695 5693 5690 5688 5685 5682 5679 5676 5674 5671 5668 5666 5663 5660 5658 5655 5652 5649 5647 5644 5641 5639 5636 5633 5630 5626 5624 5622 5620 5619 5618 5616 5615 5614 5613 5612 5612 5612